Notices

What's New in latest Release from April 7th, 2021:

- Updated Glossary, including Speed of Maximum Gust, and Total Hourly Precipitation

- Updated national and regional climate services offices contacts and prices information

- Addition of station inventory lists for 1981-2010, 1971-2000, and 1961-1990 Normals.

If you haven't already, please take our survey and provide feedback about our website: https://eccc.sondage-survey.ca/f/LanguageSelection.aspx?s=442ca660-fcf1-47c0-95a9-59707d6fd709

Hourly Data Report for December 03, 2016

CARBERRY CS
MANITOBA

49°54'20.900" N
99°21'26.800" W
383.50 m
5010547
71170
WZE

Download Data

Hourly Data (December 2016)
Hourly Data Report for December 3, 2016
TIME
LST
Temp Definition
°C
Dew Point Definition
°C
Rel Hum Definition
%
Precip. Amount Definition
mm

Wind Dir Definition
10's deg

Wind Spd Definition
km/h
Visibility Definition
km
Stn Press Definition
kPa
Hmdx Definition


Wind Chill Definition


Weather Definition


00:00 -3.5 -4.4 93 0.0 15 13   97.47   -8 LegendNANA
01:00 -3.3 -4.4 93 0.0 16 18   97.37   -9 LegendNANA
02:00 -3.5 -4.6 93 0.0 14 20   97.28   -10 LegendNANA
03:00 -3.7 -4.7 93 0.0 15 21   97.25   -10 LegendNANA
04:00 -3.7 -4.7 93 0.0 16 20   97.18   -10 LegendNANA
05:00 -3.7 -4.7 93 0.0 15 17   97.10   -9 LegendNANA
06:00 -3.3 -4.3 93 0.0 15 18   97.04   -9 LegendNANA
07:00 -3.1 -4.0 93 0.0 15 19   97.00   -9 LegendNANA
08:00 -3.1 -4.0 94 0.0 15 21   96.95   -9 LegendNANA
09:00 -2.9 -3.8 93 0.0 16 21   96.88   -9 LegendNANA
10:00 -2.5 -3.5 93 0.0 15 23   96.80   -9 LegendNANA
11:00 -2.3 -3.6 91 0.0 17 31   96.78   -10 LegendNANA
12:00 -1.7 -3.0 91 0.0 17 31   96.76   -9 LegendNANA
13:00 -1.3 -2.7 90 0.0 16 30   96.71   -8 LegendNANA
14:00 -1.8 -3.2 90 0.0 16 31   96.66   -9 LegendNANA
15:00 -1.7 -3.1 90 0.0 16 30   96.63   -9 LegendNANA
16:00 -1.6 -2.9 90 0.0 15 30   96.56   -9 LegendNANA
17:00 -1.3 -2.7 90 0.0 15 30   96.53   -8 LegendNANA
18:00 -1.0 -2.7 88 0.0 15 30   96.52   -8 LegendNANA
19:00 -0.9 -2.6 89 0.0 16 26   96.47   -7 LegendNANA
20:00 -0.9 -2.5 89 0.0 15 24   96.42   -7 LegendNANA
21:00 -1.1 -2.5 90 0.0 15 22   96.37   -7 LegendNANA
22:00 -1.0 -2.3 90 0.0 15 22   96.31   -7 LegendNANA
23:00 -0.7 -2.0 91 0.0 16 19   96.28   -6 LegendNANA

Notes on Data Quality.

Legend

  • E = Estimated
  • M = Missing
  • NA = Not Available*
  • [empty] = Indicates an unobserved value
Date modified: